Simultaneous Nadir Overpasses (SNOs) Predictions

Prediction of SNOs between GOES-16 and NOAA-19 Satellite Orbit:

Table of predicted SNOs for the next 14.0 days since TLE Epoch: 8/26/2023
Index Date Time (GOES-16) GOES-16 Lat,Lon NOAA-19 Lat,Lon Distance(km) Time Diff (sec)
1 08/26/2023 01:59:22 0.02, -75.21 0.00, -78.47 363.63 80
2 08/27/2023 01:44:26 0.01, -75.21 -0.02, -75.37 18.96 80
3 08/28/2023 01:35:01 0.02, -75.21 0.66, -72.43 316.86 80
4 08/30/2023 13:52:14 -0.03, -75.23 0.43, -77.16 220.10 80
5 08/31/2023 13:42:50 -0.03, -75.24 -0.24, -74.22 116.44 80
6 09/01/2023 13:30:46 -0.03, -75.25 -0.97, -71.29 453.15 80
7 09/03/2023 02:00:18 0.03, -75.26 -0.81, -79.01 426.97 80
8 09/04/2023 01:48:12 0.03, -75.28 -0.17, -76.06 89.69 80
9 09/05/2023 01:38:48 0.03, -75.29 0.53, -73.12 247.77 80
10 09/07/2023 13:56:03 -0.03, -75.34 0.53, -77.86 286.41 80
11 09/08/2023 13:46:37 -0.03, -75.36 -0.10, -74.90 51.35 80
